Time,TemperatureF,DewpointF,PressureIn,WindDirection,WindDirectionDegrees,WindSpeedMPH,WindSpeedGustMPH,Humidity,HourlyPrecipIn,Conditions,Clouds,dailyrainin,SoftwareType,DateUTC
2013-04-16 00:03:00,59.0,54.0,29.88,South,179,12.0,-999.0,85,-99.99,,,-99.99,,2013-04-16 04:03:00,
2013-04-16 00:12:00,59.0,54.0,29.88,South,179,12.0,-999.0,85,-99.99,,,-99.99,,2013-04-16 04:12:00,
2013-04-16 00:23:00,60.0,55.0,29.89,South,189,15.0,-999.0,84,-99.99,,,-99.99,,2013-04-16 04:23:00,
2013-04-16 00:33:00,60.0,55.0,29.88,South,188,15.0,-999.0,83,-99.99,,,-99.99,,2013-04-16 04:33:00,
2013-04-16 00:42:00,60.0,55.0,29.88,South,188,15.0,-999.0,83,-99.99,,,-99.99,,2013-04-16 04:42:00,
2013-04-16 00:53:00,60.0,55.0,29.88,South,184,15.0,-999.0,83,-99.99,,,-99.99,,2013-04-16 04:53:00,
2013-04-16 01:02:00,60.0,55.0,29.87,South,182,18.0,-999.0,83,-99.99,,,-99.99,,2013-04-16 05:02:00,
2013-04-16 01:12:00,60.0,55.0,29.87,South,182,18.0,-999.0,83,-99.99,,,-99.99,,2013-04-16 05:12:00,
2013-04-16 01:22:00,60.0,54.0,29.88,SSW,202,18.0,-999.0,82,-99.99,,,-99.99,,2013-04-16 05:22:00,
2013-04-16 01:32:00,60.0,54.0,29.88,SSW,193,17.0,-999.0,82,-99.99,,,-99.99,,2013-04-16 05:32:00,
2013-04-16 01:42:00,60.0,54.0,29.88,SSW,193,17.0,-999.0,82,-99.99,,,-99.99,,2013-04-16 05:42:00,
2013-04-16 01:52:00,60.0,54.0,29.87,South,191,17.0,-999.0,82,-99.99,,,-99.99,,2013-04-16 05:52:00,
2013-04-16 02:02:00,59.0,54.0,29.87,SSW,200,15.0,-999.0,83,-99.99,,,-99.99,,2013-04-16 06:02:00,
2013-04-16 02:12:00,59.0,54.0,29.87,SSW,200,15.0,-999.0,83,-99.99,,,-99.99,,2013-04-16 06:12:00,
2013-04-16 02:22:00,59.0,54.0,29.87,SSW,200,13.0,-999.0,83,-99.99,,,-99.99,,2013-04-16 06:22:00,
2013-04-16 02:32:00,59.0,54.0,29.87,SSW,210,12.0,-999.0,83,-99.99,,,-99.99,,2013-04-16 06:32:00,
2013-04-16 02:42:00,59.0,54.0,29.87,SSW,210,12.0,-999.0,83,-99.99,,,-99.99,,2013-04-16 06:42:00,
2013-04-16 02:52:00,59.0,54.0,29.89,WNW,290,9.0,-999.0,84,-99.99,,,-99.99,,2013-04-16 06:52:00,
2013-04-16 03:02:00,59.0,54.0,29.90,WNW,296,10.0,-999.0,84,-99.99,,,-99.99,,2013-04-16 07:02:00,
2013-04-16 03:12:00,59.0,54.0,29.90,WNW,296,10.0,-999.0,84,-99.99,,,-99.99,,2013-04-16 07:12:00,
2013-04-16 03:22:00,59.0,54.0,29.89,WNW,299,6.0,-999.0,84,-99.99,,,-99.99,,2013-04-16 07:22:00,
2013-04-16 03:32:00,53.0,48.0,29.90,NNW,344,14.0,-999.0,84,-99.99,,,-99.99,,2013-04-16 07:32:00,
2013-04-16 03:42:00,53.0,48.0,29.90,NNW,344,14.0,-999.0,84,-99.99,,,-99.99,,2013-04-16 07:42:00,
2013-04-16 03:53:00,50.0,47.0,29.90,North,5,14.0,-999.0,88,-99.99,,,-99.99,,2013-04-16 07:53:00,
2013-04-16 04:02:00,49.0,46.0,29.90,NNE,25,11.0,-999.0,90,-99.99,,,-99.99,,2013-04-16 08:02:00,
2013-04-16 04:12:00,49.0,46.0,29.90,NNE,25,11.0,-999.0,90,-99.99,,,-99.99,,2013-04-16 08:12:00,
2013-04-16 04:22:00,49.0,46.0,29.91,North,5,12.0,-999.0,90,-99.99,,,-99.99,,2013-04-16 08:22:00,
2013-04-16 04:32:00,49.0,46.0,29.90,NNE,27,8.0,-999.0,90,-99.99,,,-99.99,,2013-04-16 08:32:00,
2013-04-16 04:42:00,49.0,46.0,29.90,NNE,27,8.0,-999.0,90,-99.99,,,-99.99,,2013-04-16 08:42:00,
2013-04-16 04:52:00,49.0,46.0,29.90,NE,44,9.0,-999.0,91,-99.99,,,-99.99,,2013-04-16 08:52:00,
2013-04-16 05:02:00,49.0,46.0,29.91,NNE,13,9.0,-999.0,91,-99.99,,,-99.99,,2013-04-16 09:02:00,
2013-04-16 05:12:00,49.0,46.0,29.91,NNE,13,9.0,-999.0,91,-99.99,,,-99.99,,2013-04-16 09:12:00,
2013-04-16 05:22:00,49.0,46.0,29.95,North,5,9.0,-999.0,91,-99.99,,,-99.99,,2013-04-16 09:22:00,
2013-04-16 05:33:00,48.0,46.0,29.98,NNW,333,12.0,-999.0,92,-99.99,,,-99.99,,2013-04-16 09:33:00,
2013-04-16 05:43:00,48.0,46.0,29.98,NNW,333,12.0,-999.0,92,-99.99,,,-99.99,,2013-04-16 09:43:00,
2013-04-16 05:53:00,48.0,46.0,29.96,North,5,7.0,-999.0,93,-99.99,,,-99.99,,2013-04-16 09:53:00,
2013-04-16 06:03:00,48.0,46.0,29.95,NE,44,1.0,-999.0,93,-99.99,,,-99.99,,2013-04-16 10:03:00,
2013-04-16 06:13:00,48.0,46.0,29.95,NE,44,1.0,-999.0,93,-99.99,,,-99.99,,2013-04-16 10:13:00,
2013-04-16 06:23:00,48.0,46.0,29.96,NNE,32,0.0,-999.0,94,-99.99,,,-99.99,,2013-04-16 10:23:00,
2013-04-16 06:33:00,48.0,47.0,29.96,NNE,32,1.0,-999.0,95,-99.99,,,-99.99,,2013-04-16 10:33:00,
2013-04-16 06:42:00,48.0,47.0,29.96,NNE,32,1.0,-999.0,95,-99.99,,,-99.99,,2013-04-16 10:42:00,
2013-04-16 06:53:00,47.0,46.0,29.98,NNE,33,0.0,-999.0,95,-99.99,,,-99.99,,2013-04-16 10:53:00,
2013-04-16 07:02:00,47.0,46.0,29.98,NNE,33,0.0,-999.0,95,-99.99,,,-99.99,,2013-04-16 11:02:00,
2013-04-16 07:12:00,47.0,46.0,29.98,NNE,33,0.0,-999.0,95,-99.99,,,-99.99,,2013-04-16 11:12:00,
2013-04-16 07:22:00,47.0,46.0,29.98,NNE,33,0.0,-999.0,95,-99.99,,,-99.99,,2013-04-16 11:22:00,
2013-04-16 07:32:00,47.0,46.0,29.97,NNE,32,3.0,-999.0,95,-99.99,,,-99.99,,2013-04-16 11:32:00,
2013-04-16 07:42:00,47.0,46.0,29.97,NNE,32,3.0,-999.0,95,-99.99,,,-99.99,,2013-04-16 11:42:00,
2013-04-16 07:53:00,47.0,46.0,30.00,NNE,32,0.0,-999.0,95,-99.99,,,-99.99,,2013-04-16 11:53:00,
2013-04-16 08:02:00,47.0,46.0,30.01,WNW,297,3.0,-999.0,96,-99.99,,,-99.99,,2013-04-16 12:02:00,
2013-04-16 08:12:00,47.0,46.0,30.01,WNW,297,3.0,-999.0,96,-99.99,,,-99.99,,2013-04-16 12:12:00,
2013-04-16 08:22:00,47.0,46.0,30.01,NW,304,1.0,-999.0,96,-99.99,,,-99.99,,2013-04-16 12:22:00,
2013-04-16 08:32:00,47.0,46.0,30.03,NW,313,7.0,-999.0,96,-99.99,,,-99.99,,2013-04-16 12:32:00,
2013-04-16 08:42:00,47.0,46.0,30.03,NW,313,7.0,-999.0,96,-99.99,,,-99.99,,2013-04-16 12:42:00,
2013-04-16 08:52:00,47.0,46.0,30.06,NW,305,5.0,-999.0,96,-99.99,,,-99.99,,2013-04-16 12:52:00,
2013-04-16 09:02:00,47.0,46.0,30.06,WNW,284,4.0,-999.0,96,-99.99,,,-99.99,,2013-04-16 13:02:00,
2013-04-16 09:12:00,47.0,46.0,30.06,WNW,284,4.0,-999.0,96,-99.99,,,-99.99,,2013-04-16 13:12:00,
2013-04-16 09:22:00,47.0,46.0,30.06,NW,315,3.0,-999.0,96,-99.99,,,-99.99,,2013-04-16 13:22:00,
2013-04-16 09:32:00,47.0,46.0,30.07,NW,312,0.0,-999.0,96,-99.99,,,-99.99,,2013-04-16 13:32:00,
2013-04-16 09:42:00,47.0,46.0,30.07,NW,312,0.0,-999.0,96,-99.99,,,-99.99,,2013-04-16 13:42:00,
2013-04-16 09:52:00,47.0,46.0,30.08,WNW,294,3.0,-999.0,96,-99.99,,,-99.99,,2013-04-16 13:52:00,
2013-04-16 10:02:00,47.0,46.0,30.09,NW,315,9.0,-999.0,96,-99.99,,,-99.99,,2013-04-16 14:02:00,
2013-04-16 10:12:00,47.0,46.0,30.09,NW,315,9.0,-999.0,96,-99.99,,,-99.99,,2013-04-16 14:12:00,
2013-04-16 10:22:00,46.0,45.0,30.07,NNW,330,11.0,-999.0,96,-99.99,,,-99.99,,2013-04-16 14:22:00,
2013-04-16 10:32:00,46.0,45.0,30.06,North,350,12.0,-999.0,95,-99.99,,,-99.99,,2013-04-16 14:32:00,
2013-04-16 10:42:00,46.0,45.0,30.06,North,350,12.0,-999.0,95,-99.99,,,-99.99,,2013-04-16 14:42:00,
2013-04-16 10:52:00,46.0,45.0,30.05,NW,322,8.0,-999.0,95,-99.99,,,-99.99,,2013-04-16 14:52:00,
2013-04-16 11:02:00,46.0,45.0,30.06,North,350,9.0,-999.0,95,-99.99,,,-99.99,,2013-04-16 15:02:00,
2013-04-16 11:12:00,46.0,45.0,30.06,North,350,9.0,-999.0,95,-99.99,,,-99.99,,2013-04-16 15:12:00,
2013-04-16 11:22:00,47.0,45.0,30.08,NNW,341,6.0,-999.0,94,-99.99,,,-99.99,,2013-04-16 15:22:00,
2013-04-16 11:33:00,47.0,45.0,30.08,North,350,3.0,-999.0,94,-99.99,,,-99.99,,2013-04-16 15:33:00,
2013-04-16 11:43:00,47.0,45.0,30.08,North,350,3.0,-999.0,94,-99.99,,,-99.99,,2013-04-16 15:43:00,
2013-04-16 11:53:00,48.0,46.0,30.07,North,350,2.0,-999.0,94,-99.99,,,-99.99,,2013-04-16 15:53:00,
2013-04-16 12:03:00,49.0,47.0,30.08,NNE,22,4.0,-999.0,92,-99.99,,,-99.99,,2013-04-16 16:03:00,
2013-04-16 12:13:00,49.0,47.0,30.08,NNE,22,4.0,-999.0,92,-99.99,,,-99.99,,2013-04-16 16:13:00,
2013-04-16 12:23:00,50.0,47.0,30.09,NNE,15,1.0,-999.0,90,-99.99,,,-99.99,,2013-04-16 16:23:00,
2013-04-16 12:32:00,51.0,48.0,30.10,North,10,0.0,-999.0,88,-99.99,,,-99.99,,2013-04-16 16:32:00,
2013-04-16 12:42:00,51.0,48.0,30.10,North,10,0.0,-999.0,88,-99.99,,,-99.99,,2013-04-16 16:42:00,
2013-04-16 12:53:00,52.0,48.0,30.10,West,275,1.0,-999.0,87,-99.99,,,-99.99,,2013-04-16 16:53:00,
2013-04-16 13:02:00,52.0,48.0,30.10,West,275,1.0,-999.0,86,-99.99,,,-99.99,,2013-04-16 17:02:00,
2013-04-16 13:12:00,52.0,48.0,30.10,West,275,1.0,-999.0,86,-99.99,,,-99.99,,2013-04-16 17:12:00,
2013-04-16 13:22:00,53.0,48.0,30.09,West,275,0.0,-999.0,84,-99.99,,,-99.99,,2013-04-16 17:22:00,
2013-04-16 13:32:00,54.0,49.0,30.09,West,275,2.0,-999.0,82,-99.99,,,-99.99,,2013-04-16 17:32:00,
2013-04-16 13:43:00,54.0,49.0,30.09,West,275,2.0,-999.0,82,-99.99,,,-99.99,,2013-04-16 17:43:00,
2013-04-16 13:53:00,54.0,49.0,30.10,West,268,4.0,-999.0,83,-99.99,,,-99.99,,2013-04-16 17:53:00,
2013-04-16 14:02:00,55.0,50.0,30.11,WNW,283,7.0,-999.0,82,-99.99,,,-99.99,,2013-04-16 18:02:00,
2013-04-16 14:12:00,55.0,50.0,30.11,WNW,283,7.0,-999.0,82,-99.99,,,-99.99,,2013-04-16 18:12:00,
2013-04-16 14:22:00,54.0,49.0,30.13,WNW,296,11.0,-999.0,82,-99.99,,,-99.99,,2013-04-16 18:22:00,
2013-04-16 14:32:00,53.0,48.0,30.13,NW,318,13.0,-999.0,82,-99.99,,,-99.99,,2013-04-16 18:32:00,
2013-04-16 14:42:00,53.0,48.0,30.13,NW,318,13.0,-999.0,82,-99.99,,,-99.99,,2013-04-16 18:42:00,
2013-04-16 14:52:00,52.0,47.0,30.13,NW,314,10.0,-999.0,83,-99.99,,,-99.99,,2013-04-16 18:52:00,
2013-04-16 15:02:00,51.0,47.0,30.14,WNW,297,3.0,-999.0,86,-99.99,,,-99.99,,2013-04-16 19:02:00,
2013-04-16 15:12:00,51.0,47.0,30.14,WNW,297,3.0,-999.0,86,-99.99,,,-99.99,,2013-04-16 19:12:00,
2013-04-16 15:22:00,51.0,48.0,30.11,North,360,4.0,-999.0,89,-99.99,,,-99.99,,2013-04-16 19:22:00,
2013-04-16 15:32:00,50.0,47.0,30.09,NNE,28,1.0,-999.0,91,-99.99,,,-99.99,,2013-04-16 19:32:00,
2013-04-16 15:42:00,50.0,47.0,30.09,NNE,28,1.0,-999.0,91,-99.99,,,-99.99,,2013-04-16 19:42:00,
2013-04-16 15:52:00,50.0,48.0,30.11,NW,325,3.0,-999.0,92,-99.99,,,-99.99,,2013-04-16 19:52:00,
2013-04-16 16:02:00,49.0,47.0,30.13,NNW,327,11.0,-999.0,93,-99.99,,,-99.99,,2013-04-16 20:02:00,
2013-04-16 16:12:00,49.0,47.0,30.13,NNW,327,11.0,-999.0,93,-99.99,,,-99.99,,2013-04-16 20:12:00,
2013-04-16 16:22:00,49.0,47.0,30.13,NNW,336,8.0,-999.0,93,-99.99,,,-99.99,,2013-04-16 20:22:00,
2013-04-16 16:32:00,49.0,47.0,30.12,North,349,4.0,-999.0,93,-99.99,,,-99.99,,2013-04-16 20:32:00,
2013-04-16 16:42:00,49.0,47.0,30.12,North,349,4.0,-999.0,93,-99.99,,,-99.99,,2013-04-16 20:42:00,
2013-04-16 16:52:00,49.0,47.0,30.10,North,349,0.0,-999.0,93,-99.99,,,-99.99,,2013-04-16 20:52:00,
2013-04-16 17:02:00,49.0,47.0,30.11,North,349,0.0,-999.0,93,-99.99,,,-99.99,,2013-04-16 21:02:00,
2013-04-16 17:12:00,49.0,47.0,30.11,North,349,0.0,-999.0,93,-99.99,,,-99.99,,2013-04-16 21:12:00,
2013-04-16 17:22:00,49.0,47.0,30.14,North,349,2.0,-999.0,93,-99.99,,,-99.99,,2013-04-16 21:22:00,
2013-04-16 17:32:00,49.0,47.0,30.15,North,349,1.0,-999.0,93,-99.99,,,-99.99,,2013-04-16 21:32:00,
2013-04-16 17:43:00,49.0,47.0,30.15,North,349,1.0,-999.0,93,-99.99,,,-99.99,,2013-04-16 21:43:00,
2013-04-16 17:53:00,49.0,47.0,30.15,North,349,0.0,-999.0,93,-99.99,,,-99.99,,2013-04-16 21:53:00,
2013-04-16 18:03:00,50.0,48.0,30.14,North,349,1.0,-999.0,93,-99.99,,,-99.99,,2013-04-16 22:03:00,
2013-04-16 18:13:00,50.0,48.0,30.14,North,349,1.0,-999.0,93,-99.99,,,-99.99,,2013-04-16 22:13:00,
2013-04-16 18:22:00,50.0,48.0,30.15,North,349,0.0,-999.0,93,-99.99,,,-99.99,,2013-04-16 22:22:00,
2013-04-16 18:33:00,50.0,48.0,30.13,North,350,3.0,-999.0,92,-99.99,,,-99.99,,2013-04-16 22:33:00,
2013-04-16 18:43:00,50.0,48.0,30.13,North,350,3.0,-999.0,92,-99.99,,,-99.99,,2013-04-16 22:43:00,
2013-04-16 18:52:00,50.0,48.0,30.13,North,350,3.0,-999.0,92,-99.99,,,-99.99,,2013-04-16 22:52:00,
2013-04-16 19:02:00,51.0,47.0,30.14,NNE,24,5.0,-999.0,85,-99.99,,,-99.99,,2013-04-16 23:02:00,
2013-04-16 19:12:00,51.0,47.0,30.14,NNE,24,5.0,-999.0,85,-99.99,,,-99.99,,2013-04-16 23:12:00,
2013-04-16 19:22:00,51.0,46.0,30.14,North,360,3.0,-999.0,83,-99.99,,,-99.99,,2013-04-16 23:22:00,
2013-04-16 19:32:00,51.0,46.0,30.14,North,360,3.0,-999.0,83,-99.99,,,-99.99,,2013-04-16 23:32:00,
2013-04-16 19:43:00,51.0,46.0,30.14,North,360,3.0,-999.0,83,-99.99,,,-99.99,,2013-04-16 23:43:00,
2013-04-16 19:52:00,51.0,46.0,30.15,North,5,1.0,-999.0,82,-99.99,,,-99.99,,2013-04-16 23:52:00,
2013-04-16 20:02:00,52.0,47.0,30.15,NNE,26,0.0,-999.0,82,-99.99,,,-99.99,,2013-04-17 00:02:00,
2013-04-16 20:12:00,52.0,47.0,30.15,NNE,26,0.0,-999.0,82,-99.99,,,-99.99,,2013-04-17 00:12:00,
2013-04-16 20:22:00,52.0,46.0,30.15,NNE,25,0.0,-999.0,81,-99.99,,,-99.99,,2013-04-17 00:22:00,
2013-04-16 20:32:00,52.0,46.0,30.15,NNE,25,0.0,-999.0,81,-99.99,,,-99.99,,2013-04-17 00:32:00,
2013-04-16 20:42:00,52.0,46.0,30.15,NNE,25,0.0,-999.0,81,-99.99,,,-99.99,,2013-04-17 00:42:00,
2013-04-16 20:52:00,51.0,44.0,30.16,NNE,20,3.0,-999.0,77,-99.99,,,-99.99,,2013-04-17 00:52:00,
2013-04-16 21:02:00,51.0,43.0,30.16,NNE,22,1.0,-999.0,75,-99.99,,,-99.99,,2013-04-17 01:02:00,
2013-04-16 21:12:00,51.0,43.0,30.16,NNE,22,1.0,-999.0,75,-99.99,,,-99.99,,2013-04-17 01:12:00,
2013-04-16 21:22:00,51.0,44.0,30.14,NNE,22,0.0,-999.0,77,-99.99,,,-99.99,,2013-04-17 01:22:00,
2013-04-16 21:32:00,51.0,44.0,30.15,NNE,21,3.0,-999.0,76,-99.99,,,-99.99,,2013-04-17 01:32:00,
2013-04-16 21:42:00,51.0,44.0,30.15,NNE,21,3.0,-999.0,76,-99.99,,,-99.99,,2013-04-17 01:42:00,
2013-04-16 21:52:00,50.0,43.0,30.15,NNE,27,4.0,-999.0,77,-99.99,,,-99.99,,2013-04-17 01:52:00,
2013-04-16 22:02:00,50.0,43.0,30.16,NNE,29,3.0,-999.0,76,-99.99,,,-99.99,,2013-04-17 02:02:00,
2013-04-16 22:12:00,50.0,43.0,30.16,NNE,29,3.0,-999.0,76,-99.99,,,-99.99,,2013-04-17 02:12:00,
2013-04-16 22:22:00,50.0,42.0,30.17,NNE,22,3.0,-999.0,75,-99.99,,,-99.99,,2013-04-17 02:22:00,
2013-04-16 22:32:00,50.0,42.0,30.19,North,5,5.0,-999.0,74,-99.99,,,-99.99,,2013-04-17 02:32:00,
2013-04-16 22:42:00,50.0,42.0,30.19,North,5,5.0,-999.0,74,-99.99,,,-99.99,,2013-04-17 02:42:00,
2013-04-16 22:52:00,49.0,42.0,30.19,NNE,17,1.0,-999.0,76,-99.99,,,-99.99,,2013-04-17 02:52:00,
2013-04-16 23:02:00,49.0,42.0,30.18,NNE,32,2.0,-999.0,76,-99.99,,,-99.99,,2013-04-17 03:02:00,
2013-04-16 23:12:00,49.0,42.0,30.18,NNE,32,2.0,-999.0,76,-99.99,,,-99.99,,2013-04-17 03:12:00,
2013-04-16 23:22:00,49.0,42.0,30.20,NNE,14,3.0,-999.0,76,-99.99,,,-99.99,,2013-04-17 03:22:00,
2013-04-16 23:33:00,49.0,42.0,30.20,NNE,14,3.0,-999.0,76,-99.99,,,-99.99,,2013-04-17 03:33:00,
2013-04-16 23:42:00,49.0,42.0,30.20,NNE,14,3.0,-999.0,76,-99.99,,,-99.99,,2013-04-17 03:42:00,
2013-04-16 23:53:00,47.0,43.0,30.17,NE,52,2.0,-999.0,85,-99.99,,,-99.99,,2013-04-17 03:53:00,